Cloud_Cover
5 14 8 100 56 14 4 0 0 2 0 3 0 5 37 33 95 59 13 52 5 4 0 0 0 0 4 0 0 0 0 0 0 0 0 100 74 89 55 92 100 100 96 99 100 100 100 100 100
5 91 91 15 40 0 2 0 0 1 0 0 0 0 0 0 9 2 8 1 0 0 0 0 0 0 0 0 0 0 5 0 0 0 2 23 100 73 100 100 100 100 89 84 91 92 100 83 100
73 100 100 80 39 0 0 0 0 0 0 0 0 0 0 1 89 34 0 0 0 0 0 0 0 0 0 0 0 5 3 4 0 0 0 18 100 100 81 100 100 100 100 100 100 98 100 100 100
100 100 100 50 1 0 0 0 0 0 0 0 0 10 38 51 0 7 12 0 0 0 0 0 0 0 0 0 1 4 5 0 0 0 0 5 100 100 59 100 94 100 100 96 16 8 7 54 76
100 100 100 100 97 38 2 0 0 0 0 0 0 44 91 42 0 100 80 0 12 0 8 0 0 0 0 0 1 13 0 0 0 0 0 16 97 100 100 100 100 100 100 42 5 5 99 6 57
100 100 100 100 54 30 4 0 0 0 0 0 0 0 2 0 31 31 7 1 4 0 0 0 0 0 0 0 59 5 1 0 0 0 4 2 84 76 100 100 100 70 60 46 6 5 7 71 90
16 100 100 61 100 51 0 3 0 0 0 0 0 0 0 0 33 28 4 26 0 0 0 0 0 0 3 1 53 3 0 0 0 0 0 8 5 38 28 99 100 100 50 5 31 19 5 10 40
94 96 90 92 100 50 59 36 0 0 0 0 0 0 0 0 1 40 37 15 0 0 0 0 0 0 0 0 2 1 0 0 0 0 0 0 4 0 5 82 92 64 39 74 70 15 48 5 86
6 95 91 87 87 53 5 72 4 1 1 0 0 0 0 0 0 0 93 1 0 0 16 0 0 0 1 0 5 1 5 5 0 0 0 0 3 0 0 3 90 12 5 6 54 48 30 46 7
91 100 96 95 40 92 95 92 100 21 0 0 0 0 0 0 0 0 0 0 0 0 0 0 0 0 2 5 19 14 5 13 12 1 0 0 3 0 5 26 5 6 30 100 97 100 100 100 98
70 70 85 8 25 99 88 94 100 100 6 96 11 10 0 0 0 0 0 0 0 0 6 0 2 5 1 4 100 42 7 100 98 55 100 98 10 9 10 2 62 72 100 98 44 39 42 100 97
5 19 81 1 1 68 89 1 100 93 100 16 100 100 66 0 0 0 0 0 0 0 0 0 2 48 71 59 100 99 98 100 100 100 86 100 97 30 3 8 60 43 8 93 99 100 100 100 96
36 11 78 98 5 66 26 28 100 100 100 28 100 86 33 92 0 0 0 0 0 0 0 0 1 10 97 100 98 96 100 100 100 100 100 100 100 76 31 21 71 100 100 100 100 100 100 100 87
26 98 99 79 0 5 0 32 99 100 100 83 100 60 8 7 0 0 0 0 0 0 0 0 23 59 24 100 100 100 100 100 100 100 100 100 100 30 99 66 91 100 100 100 100 100 100 100 100
8 100 61 42 64 93 0 0 100 100 100 100 100 100 100 94 0 0 0 0 0 0 0 0 0 5 1 98 100 100 100 100 100 100 100 100 100 84 76 100 100 100 100 100 100 100 100 100 100
49 96 2 61 100 23 75 30 0 8 38 100 100 100 54 64 0 0 5 0 0 0 0 0 1 9 5 0 98 100 100 100 100 100 99 100 100 100 94 100 100 100 100 100 100 100 100 100 100
0 13 6 100 85 86 51 4 5 69 100 100 84 100 94 38 50 24 4 3 0 0 0 0 8 2 4 0 28 100 100 99 100 100 87 62 99 100 100 100 100 100 100 100 100 100 100 100 100
4 48 84 100 100 100 100 31 45 5 100 72 3 100 100 41 100 99 13 23 0 0 0 0 0 3 2 0 41 100 89 97 99 67 72 56 53 83 76 51 100 100 100 100 100 100 100 100 100
5 58 100 93 100 100 100 55 92 96 100 90 62 100 100 100 100 100 32 57 0 0 0 0 0 0 3 0 1 100 100 79 65 99 78 99 78 91 94 96 100 100 100 100 100 100 100 100 100
14 88 100 100 60 100 99 45 96 97 13 63 60 17 100 100 100 100 20 0 0 0 0 0 0 2 5 0 0 92 100 100 66 40 61 98 97 100 46 71 100 92 100 100 100 100 95 100 100
93 20 100 92 98 100 100 85 46 94 100 100 59 4 21 28 11 1 0 0 0 0 0 0 0 0 0 5 0 0 90 100 100 100 100 100 38 88 100 54 100 100 100 56 51 58 97 100 51
11 53 96 76 96 82 100 100 98 3 20 37 91 95 5 0 0 0 0 0 0 0 0 0 96 58 0 1 0 0 0 20 100 94 96 100 93 28 100 100 95 71 99 98 95 6 28 91 51
0 3 4 0 0 0 34 99 4 76 5 5 100 100 100 92 1 2 2 0 0 0 0 0 87 75 0 0 4 0 0 0 32 66 20 100 100 100 100 100 100 100 100 93 80 100 100 100 52
0 0 0 0 0 0 0 0 0 0 49 2 28 91 4 4 46 100 100 90 0 0 0 0 43 24 4 100 0 0 0 0 2 67 62 95 76 100 100 100 64 78 66 98 12 46 88 100 96
0 0 0 0 0 0 0 0 0 34 67 2 0 1 13 7 100 100 100 100 100 0 0 0 99 4 18 82 0 4 0 4 5 94 93 59 97 79 100 100 100 100 100 100 100 100 99 67 69
0 0 0 0 2 4 82 64 51 46 100 100 1 0 59 1 100 100 100 100 100 0 0 0 100 44 100 33 1 4 79 83 37 98 100 100 100 100 100 100 100 100 100 100 100 100 98 72 100
0 0 9 2 0 4 0 20 100 31 10 98 48 15 0 82 10 100 100 100 66 96 0 0 54 100 100 100 100 100 100 100 100 100 100 100 100 100 100 100 100 100 100 100 100 100 100 100 100
0 88 3 0 46 81 0 5 50 87 94 100 100 100 94 100 11 2 86 58 0 0 0 0 15 46 74 100 94 100 88 100 100 100 100 100 100 100 100 100 100 100 100 100 100 99 100 100 47
0 4 2 5 1 1 0 2 0 75 100 100 100 100 100 99 2 0 0 0 0 0 0 48 2 6 58 13 100 95 100 100 100 100 100 90 100 98 98 100 100 66 100 100 98 100 100 98 56
0 0 5 5 5 2 4 3 0 100 100 100 100 100 100 100 27 0 0 0 0 3 0 98 36 5 2 5 30 94 100 100 100 96 85 49 95 68 100 71 44 100 100 100 97 82 15 99 84